Location: Banksville Park
(38.5557°N, 75.1182°W)
Time: 15:57:21
(UTC+00:00)

SJ-6B - Pass Details

Date: 19 September 2020
Orbit: 511 x 580 km, 97.6° (Epoch: 31 October)

Event Time Altitude Azimuth Distance (km) Brightness Sun altitude
Exits shadow 00:09:15 21° 81° (E) 1,177 3.9 -13.7°
Maximum altitude 00:09:43 22° 70° (ENE) 1,160 4.0 -13.8°
Drops below altitude 10° 00:12:38 10° 18° (NNE) 1,743 5.3 -14.3°
Sets 00:15:04 0° 3° (N) 2,641 6.4 -14.8°
